Time,TemperatureF,DewpointF,PressureIn,WindDirection,WindDirectionDegrees,WindSpeedMPH,WindSpeedGustMPH,Humidity,HourlyPrecipIn,Conditions,Clouds,dailyrainin,SoftwareType,DateUTC
2013-02-27 00:00:00,41.7,37.0,29.62,SSW,202,3.1,9.6,83,0.00,,-RA,0.00,VWS V14.01,2013-02-27 05:00:00,
2013-02-27 00:05:00,41.5,36.5,29.62,SW,225,5.4,9.6,82,0.00,,OVC011,0.00,VWS V14.01,2013-02-27 05:05:00,
2013-02-27 00:10:00,41.5,36.5,29.62,WSW,248,3.6,9.6,82,0.00,,OVC011,0.00,VWS V14.01,2013-02-27 05:10:00,
2013-02-27 00:15:00,41.5,36.5,29.62,WSW,248,2.9,9.6,82,0.00,,OVC011,0.00,VWS V14.01,2013-02-27 05:15:00,
2013-02-27 00:20:00,41.5,36.5,29.62,WSW,248,4.0,9.6,82,0.00,,OVC011,0.00,VWS V14.01,2013-02-27 05:20:00,
2013-02-27 00:25:00,41.5,36.5,29.62,SSW,202,3.8,9.6,82,0.00,,OVC011,0.00,VWS V14.01,2013-02-27 05:25:00,
2013-02-27 00:30:00,41.5,36.5,29.62,South,180,3.4,9.6,82,0.00,,OVC011,0.00,VWS V14.01,2013-02-27 05:30:00,
2013-02-27 00:35:00,41.5,36.5,29.62,SSW,202,4.0,9.6,82,0.00,,OVC012,0.00,VWS V14.01,2013-02-27 05:35:00,
2013-02-27 00:40:00,41.5,36.5,29.65,SW,225,2.9,9.6,82,0.00,,OVC012,0.00,VWS V14.01,2013-02-27 05:40:00,
2013-02-27 00:45:00,41.5,36.5,29.65,SSW,202,5.4,9.6,82,0.00,,OVC012,0.00,VWS V14.01,2013-02-27 05:45:00,
2013-02-27 00:50:00,41.5,36.8,29.65,SSW,202,2.7,9.6,83,0.00,,OVC012,0.00,VWS V14.01,2013-02-27 05:50:00,
2013-02-27 00:55:00,41.4,36.6,29.65,WSW,248,2.5,2.5,83,0.00,,OVC012,0.00,VWS V14.01,2013-02-27 05:55:00,
2013-02-27 01:00:00,41.4,36.3,29.65,SSW,202,5.4,7.4,82,0.00,,OVC012,0.00,VWS V14.01,2013-02-27 06:00:00,
2013-02-27 01:05:00,41.4,36.3,29.65,SW,225,5.4,7.4,82,0.00,,OVC012,0.00,VWS V14.01,2013-02-27 06:05:00,
2013-02-27 01:10:00,41.4,36.3,29.65,South,180,5.4,8.7,82,0.00,,OVC012,0.00,VWS V14.01,2013-02-27 06:10:00,
2013-02-27 01:15:00,41.4,36.0,29.65,SW,225,3.6,8.7,81,0.00,,OVC012,0.00,VWS V14.01,2013-02-27 06:15:00,
2013-02-27 01:20:00,41.4,36.0,29.65,SSW,202,2.5,8.7,81,0.00,,OVC012,0.00,VWS V14.01,2013-02-27 06:20:00,
2013-02-27 01:25:00,41.4,36.3,29.68,West,270,7.4,8.7,82,0.00,,OVC012,0.00,VWS V14.01,2013-02-27 06:25:00,
2013-02-27 01:30:00,41.4,36.0,29.68,SW,225,5.8,8.7,81,0.00,,OVC012,0.00,VWS V14.01,2013-02-27 06:30:00,
2013-02-27 01:35:00,41.4,36.0,29.68,SSW,202,6.0,8.7,81,0.00,,OVC012,0.00,VWS V14.01,2013-02-27 06:35:00,
2013-02-27 01:40:00,41.4,36.0,29.68,WSW,248,6.3,8.7,81,0.00,,OVC012,0.00,VWS V14.01,2013-02-27 06:40:00,
2013-02-27 01:45:00,41.4,36.0,29.68,SSW,202,5.4,8.7,81,0.00,,OVC012,0.00,VWS V14.01,2013-02-27 06:45:00,
2013-02-27 01:50:00,41.4,36.0,29.68,SW,225,6.0,8.7,81,0.00,,OVC012,0.00,VWS V14.01,2013-02-27 06:50:00,
2013-02-27 01:55:00,41.4,36.0,29.68,WSW,248,2.5,5.6,81,0.00,,OVC012,0.00,VWS V14.01,2013-02-27 06:55:00,
2013-02-27 02:00:00,41.4,36.0,29.68,WSW,248,5.6,6.5,81,0.00,,OVC012,0.00,VWS V14.01,2013-02-27 07:00:00,
2013-02-27 02:05:00,41.4,36.0,29.68,WSW,248,3.1,7.2,81,0.00,,OVC013,0.00,VWS V14.01,2013-02-27 07:05:00,
2013-02-27 02:10:00,41.4,36.3,29.68,SSE,158,3.6,8.1,82,0.00,,OVC013,0.00,VWS V14.01,2013-02-27 07:10:00,
2013-02-27 02:15:00,41.4,36.3,29.68,West,270,6.7,10.1,82,0.00,,OVC013,0.00,VWS V14.01,2013-02-27 07:15:00,
2013-02-27 02:20:00,41.4,36.3,29.68,SW,225,2.9,10.1,82,0.00,,OVC013,0.00,VWS V14.01,2013-02-27 07:20:00,
2013-02-27 02:25:00,41.5,36.5,29.68,WSW,248,3.6,10.1,82,0.00,,OVC013,0.00,VWS V14.01,2013-02-27 07:25:00,
2013-02-27 02:30:00,41.4,36.3,29.68,WSW,248,6.3,10.1,82,0.00,,OVC013,0.00,VWS V14.01,2013-02-27 07:30:00,
2013-02-27 02:35:00,41.4,36.3,29.68,SW,225,4.7,10.1,82,0.00,,OVC012,0.00,VWS V14.01,2013-02-27 07:35:00,
2013-02-27 02:40:00,41.4,36.3,29.71,WSW,248,4.9,10.1,82,0.00,,OVC012,0.00,VWS V14.01,2013-02-27 07:40:00,
2013-02-27 02:45:00,41.4,36.6,29.71,WSW,248,3.6,10.1,83,0.00,,OVC012,0.00,VWS V14.01,2013-02-27 07:45:00,
2013-02-27 02:50:00,41.2,36.4,29.71,WSW,248,3.8,10.1,83,0.00,,OVC012,0.00,VWS V14.01,2013-02-27 07:50:00,
2013-02-27 02:55:00,41.2,36.4,29.68,WSW,248,4.3,5.4,83,0.00,,OVC012,0.00,VWS V14.01,2013-02-27 07:55:00,
2013-02-27 03:00:00,41.2,36.4,29.68,SW,225,3.8,7.4,83,0.00,,OVC012,0.00,VWS V14.01,2013-02-27 08:00:00,
2013-02-27 03:05:00,41.2,36.4,29.68,WSW,248,4.0,8.1,83,0.00,,OVC012,0.00,VWS V14.01,2013-02-27 08:05:00,
2013-02-27 03:10:00,41.2,36.4,29.68,WSW,248,4.7,8.7,83,0.00,,OVC012,0.00,VWS V14.01,2013-02-27 08:10:00,
2013-02-27 03:15:00,41.2,36.4,29.68,SSW,202,6.5,9.6,83,0.00,,OVC014,0.00,VWS V14.01,2013-02-27 08:15:00,
2013-02-27 03:20:00,41.2,36.1,29.68,SW,225,7.4,9.6,82,0.00,,OVC014,0.00,VWS V14.01,2013-02-27 08:20:00,
2013-02-27 03:25:00,41.2,36.1,29.68,West,270,3.8,9.6,82,0.00,,OVC014,0.00,VWS V14.01,2013-02-27 08:25:00,
2013-02-27 03:30:00,41.0,35.9,29.68,SW,225,2.9,9.6,82,0.00,,OVC014,0.00,VWS V14.01,2013-02-27 08:30:00,
2013-02-27 03:35:00,41.0,36.2,29.68,WSW,248,4.7,9.6,83,0.00,,OVC014,0.00,VWS V14.01,2013-02-27 08:35:00,
2013-02-27 03:40:00,41.0,36.2,29.71,WSW,248,3.6,9.6,83,0.00,,OVC014,0.00,VWS V14.01,2013-02-27 08:40:00,
2013-02-27 03:45:00,41.0,36.2,29.71,WSW,248,4.9,9.6,83,0.00,,OVC014,0.00,VWS V14.01,2013-02-27 08:45:00,
2013-02-27 03:50:00,41.0,36.2,29.71,WSW,248,6.0,9.6,83,0.00,,OVC014,0.00,VWS V14.01,2013-02-27 08:50:00,
2013-02-27 03:55:00,41.0,35.9,29.68,SSW,202,3.6,3.6,82,0.00,,OVC014,0.00,VWS V14.01,2013-02-27 08:55:00,
2013-02-27 04:00:00,41.0,35.9,29.68,SSW,202,3.4,7.4,82,0.00,,OVC014,0.00,VWS V14.01,2013-02-27 09:00:00,
2013-02-27 04:05:00,41.0,35.9,29.68,WSW,248,3.4,8.5,82,0.00,,OVC014,0.00,VWS V14.01,2013-02-27 09:05:00,
2013-02-27 04:10:00,41.0,35.6,29.68,WSW,248,4.9,8.5,81,0.00,,OVC014,0.00,VWS V14.01,2013-02-27 09:10:00,
2013-02-27 04:15:00,41.0,35.3,29.68,WSW,248,2.9,8.5,80,0.00,,OVC012,0.00,VWS V14.01,2013-02-27 09:15:00,
2013-02-27 04:20:00,41.0,35.3,29.68,SW,225,4.0,8.5,80,0.00,,OVC012,0.00,VWS V14.01,2013-02-27 09:20:00,
2013-02-27 04:25:00,41.0,35.3,29.68,WSW,248,3.1,8.5,80,0.00,,OVC012,0.00,VWS V14.01,2013-02-27 09:25:00,
2013-02-27 04:30:00,41.0,35.0,29.68,SSW,202,2.7,8.5,79,0.00,,OVC012,0.00,VWS V14.01,2013-02-27 09:30:00,
2013-02-27 04:35:00,41.0,35.0,29.68,SSE,158,5.8,8.5,79,0.00,,OVC012,0.00,VWS V14.01,2013-02-27 09:35:00,
2013-02-27 04:40:00,41.0,35.0,29.68,WSW,248,3.1,10.7,79,0.00,,OVC012,0.00,VWS V14.01,2013-02-27 09:40:00,
2013-02-27 04:45:00,41.0,35.0,29.68,SW,225,3.6,10.7,79,0.00,,OVC012,0.00,VWS V14.01,2013-02-27 09:45:00,
2013-02-27 04:50:00,41.0,35.0,29.68,SSW,202,4.0,10.7,79,0.00,,OVC012,0.00,VWS V14.01,2013-02-27 09:50:00,
2013-02-27 04:55:00,40.8,34.8,29.71,WSW,248,3.6,6.5,79,0.00,,OVC012,0.00,VWS V14.01,2013-02-27 09:55:00,
2013-02-27 05:00:00,40.8,34.8,29.71,SSW,202,4.9,8.5,79,0.00,,OVC012,0.00,VWS V14.01,2013-02-27 10:00:00,
2013-02-27 05:05:00,40.8,34.8,29.71,SW,225,3.8,8.5,79,0.00,,OVC012,0.00,VWS V14.01,2013-02-27 10:05:00,
2013-02-27 05:10:00,40.8,34.8,29.71,SW,225,5.8,9.4,79,0.00,,OVC012,0.00,VWS V14.01,2013-02-27 10:10:00,
2013-02-27 05:15:00,40.8,34.8,29.71,WSW,248,3.4,9.4,79,0.00,,OVC011,0.00,VWS V14.01,2013-02-27 10:15:00,
2013-02-27 05:20:00,40.8,34.8,29.71,SW,225,7.4,9.8,79,0.00,,OVC011,0.00,VWS V14.01,2013-02-27 10:20:00,
2013-02-27 05:25:00,40.6,34.7,29.71,SSW,202,3.1,9.8,79,0.00,,OVC011,0.00,VWS V14.01,2013-02-27 10:25:00,
2013-02-27 05:30:00,40.6,34.7,29.71,WNW,292,6.0,9.8,79,0.00,,OVC011,0.00,VWS V14.01,2013-02-27 10:30:00,
2013-02-27 05:35:00,40.6,34.7,29.71,WNW,292,4.3,9.8,79,0.00,,OVC011,0.00,VWS V14.01,2013-02-27 10:35:00,
2013-02-27 05:40:00,40.6,34.3,29.71,SW,225,4.0,9.8,78,0.00,,OVC011,0.00,VWS V14.01,2013-02-27 10:40:00,
2013-02-27 05:45:00,40.6,34.3,29.71,WSW,248,5.8,9.8,78,0.00,,OVC011,0.00,VWS V14.01,2013-02-27 10:45:00,
2013-02-27 05:50:00,40.6,34.3,29.71,SW,225,4.3,9.8,78,0.00,,OVC011,0.00,VWS V14.01,2013-02-27 10:50:00,
2013-02-27 05:55:00,40.6,34.3,29.74,SSW,202,5.4,6.3,78,0.00,,OVC011,0.00,VWS V14.01,2013-02-27 10:55:00,
2013-02-27 06:00:00,40.5,34.2,29.74,WSW,248,3.4,6.5,78,0.00,,OVC011,0.00,VWS V14.01,2013-02-27 11:00:00,
2013-02-27 06:05:00,40.5,34.2,29.74,West,270,7.2,7.2,78,0.00,,OVC011,0.00,VWS V14.01,2013-02-27 11:05:00,
2013-02-27 06:10:00,40.5,33.8,29.74,SSW,202,4.9,7.8,77,0.00,,OVC011,0.00,VWS V14.01,2013-02-27 11:10:00,
2013-02-27 06:15:00,40.5,33.8,29.74,WSW,248,4.9,7.8,77,0.00,,OVC011,0.00,VWS V14.01,2013-02-27 11:15:00,
2013-02-27 06:20:00,40.3,33.3,29.74,West,270,7.6,7.8,76,0.00,,OVC011,0.00,VWS V14.01,2013-02-27 11:20:00,
2013-02-27 06:25:00,40.3,33.0,29.74,WSW,248,3.6,8.7,75,0.00,,OVC011,0.00,VWS V14.01,2013-02-27 11:25:00,
2013-02-27 06:30:00,40.3,32.7,29.74,WSW,248,4.0,8.7,74,0.00,,OVC011,0.00,VWS V14.01,2013-02-27 11:30:00,
2013-02-27 06:35:00,40.1,32.2,29.74,WSW,248,4.3,8.7,73,0.00,,OVC011,0.00,VWS V14.01,2013-02-27 11:35:00,
2013-02-27 06:40:00,40.1,32.2,29.74,WSW,248,3.8,8.7,73,0.00,,OVC011,0.00,VWS V14.01,2013-02-27 11:40:00,
2013-02-27 06:45:00,40.1,32.2,29.74,WSW,248,3.8,8.7,73,0.00,,OVC011,0.00,VWS V14.01,2013-02-27 11:45:00,
2013-02-27 06:50:00,40.1,31.8,29.74,SSW,202,6.5,8.7,72,0.00,,OVC014,0.00,VWS V14.01,2013-02-27 11:50:00,
2013-02-27 06:55:00,39.9,31.6,29.74,WSW,248,5.4,7.2,72,0.00,,OVC014,0.00,VWS V14.01,2013-02-27 11:55:00,
2013-02-27 07:00:00,39.9,31.3,29.74,SW,225,5.4,8.7,71,0.00,,OVC014,0.00,VWS V14.01,2013-02-27 12:00:00,
2013-02-27 07:05:00,39.7,31.1,29.74,WNW,292,4.0,8.7,71,0.00,,OVC014,0.00,VWS V14.01,2013-02-27 12:05:00,
2013-02-27 07:10:00,39.7,30.8,29.76,West,270,3.8,8.7,70,0.00,,OVC014,0.00,VWS V14.01,2013-02-27 12:10:00,
2013-02-27 07:15:00,39.7,31.1,29.76,West,270,2.7,8.7,71,0.00,,OVC021,0.00,VWS V14.01,2013-02-27 12:15:00,
2013-02-27 07:20:00,39.6,31.3,29.76,WSW,248,4.9,9.6,72,0.00,,OVC021,0.00,VWS V14.01,2013-02-27 12:20:00,
2013-02-27 07:25:00,39.4,31.1,29.76,West,270,1.6,9.6,72,0.00,,OVC021,0.00,VWS V14.01,2013-02-27 12:25:00,
2013-02-27 07:30:00,39.4,31.5,29.76,SW,225,3.1,9.6,73,0.00,,OVC021,0.00,VWS V14.01,2013-02-27 12:30:00,
2013-02-27 07:35:00,39.2,31.6,29.76,WSW,248,3.8,9.6,74,0.00,,OVC021,0.00,VWS V14.01,2013-02-27 12:35:00,
2013-02-27 07:40:00,39.2,32.0,29.76,WNW,292,4.7,9.6,75,0.00,,OVC021,0.00,VWS V14.01,2013-02-27 12:40:00,
2013-02-27 07:45:00,39.2,32.3,29.76,WNW,292,4.3,9.6,76,0.00,,OVC021,0.00,VWS V14.01,2013-02-27 12:45:00,
2013-02-27 07:50:00,39.0,32.4,29.76,SW,225,2.2,9.6,77,0.00,,OVC021,0.00,VWS V14.01,2013-02-27 12:50:00,
2013-02-27 07:55:00,39.0,32.8,29.79,WSW,248,2.5,4.0,78,0.00,,OVC021,0.00,VWS V14.01,2013-02-27 12:55:00,
2013-02-27 08:00:00,38.8,32.6,29.79,WSW,248,3.4,4.9,78,0.00,,OVC021,0.00,VWS V14.01,2013-02-27 13:00:00,
2013-02-27 08:05:00,38.8,32.9,29.79,WNW,292,2.9,5.4,79,0.00,,OVC021,0.00,VWS V14.01,2013-02-27 13:05:00,
2013-02-27 08:10:00,38.8,33.5,29.79,South,180,2.5,6.3,81,0.00,,OVC021,0.00,VWS V14.01,2013-02-27 13:10:00,
2013-02-27 08:15:00,38.8,33.5,29.79,SSW,202,2.5,6.3,81,0.00,,OVC021,0.00,VWS V14.01,2013-02-27 13:15:00,
2013-02-27 08:20:00,38.8,33.8,29.79,SW,225,2.5,6.3,82,0.00,,,0.00,VWS V14.01,2013-02-27 13:20:00,
2013-02-27 08:25:00,38.8,33.8,29.79,WSW,248,4.7,6.3,82,0.00,,,0.00,VWS V14.01,2013-02-27 13:25:00,
2013-02-27 08:30:00,38.8,33.8,29.79,West,270,2.7,6.3,82,0.00,,,0.00,VWS V14.01,2013-02-27 13:30:00,
2013-02-27 08:35:00,39.0,34.3,29.79,WSW,248,2.9,7.2,83,0.00,,,0.00,VWS V14.01,2013-02-27 13:35:00,
2013-02-27 08:40:00,39.2,34.5,29.79,SSW,202,1.6,7.2,83,0.00,,,0.00,VWS V14.01,2013-02-27 13:40:00,
2013-02-27 08:45:00,39.2,34.5,29.79,WSW,248,4.9,7.2,83,0.00,,,0.00,VWS V14.01,2013-02-27 13:45:00,
2013-02-27 08:50:00,39.4,34.3,29.79,WSW,248,2.5,7.2,82,0.00,,,0.00,VWS V14.01,2013-02-27 13:50:00,
2013-02-27 08:55:00,39.4,34.3,29.79,WSW,248,5.6,5.6,82,0.00,,,0.00,VWS V14.01,2013-02-27 13:55:00,
2013-02-27 09:00:00,39.4,34.0,29.79,WSW,248,3.8,6.3,81,0.00,,,0.00,VWS V14.01,2013-02-27 14:00:00,
2013-02-27 09:05:00,39.6,33.9,29.79,SSW,202,3.8,7.2,80,0.00,,,0.00,VWS V14.01,2013-02-27 14:05:00,
2013-02-27 09:10:00,39.6,33.6,29.76,SW,225,5.4,7.4,79,0.00,,,0.00,VWS V14.01,2013-02-27 14:10:00,
2013-02-27 09:15:00,39.4,32.8,29.76,West,270,2.9,8.1,77,0.00,,,0.00,VWS V14.01,2013-02-27 14:15:00,
2013-02-27 09:20:00,39.6,33.0,29.76,WNW,292,2.7,8.1,77,0.00,,,0.00,VWS V14.01,2013-02-27 14:20:00,
2013-02-27 09:25:00,39.6,33.0,29.79,SW,225,6.0,8.1,77,0.00,,,0.00,VWS V14.01,2013-02-27 14:25:00,
2013-02-27 09:30:00,39.6,32.6,29.79,WSW,248,2.5,8.7,76,0.00,,,0.00,VWS V14.01,2013-02-27 14:30:00,
2013-02-27 09:35:00,39.7,32.5,29.79,SSW,202,2.7,8.7,75,0.00,,,0.00,VWS V14.01,2013-02-27 14:35:00,
2013-02-27 09:40:00,39.7,32.5,29.79,WSW,248,5.8,8.7,75,0.00,,,0.00,VWS V14.01,2013-02-27 14:40:00,
2013-02-27 09:45:00,39.7,32.1,29.79,SSW,202,7.4,8.7,74,0.00,,,0.00,VWS V14.01,2013-02-27 14:45:00,
2013-02-27 09:50:00,39.6,32.0,29.79,WSW,248,5.4,8.7,74,0.00,,,0.00,VWS V14.01,2013-02-27 14:50:00,
2013-02-27 09:55:00,39.4,31.8,29.79,SSW,202,4.7,5.4,74,0.00,,,0.00,VWS V14.01,2013-02-27 14:55:00,
2013-02-27 10:00:00,39.7,32.5,29.79,West,270,5.6,5.6,75,0.00,,,0.00,VWS V14.01,2013-02-27 15:00:00,
2013-02-27 10:05:00,40.1,32.8,29.79,WSW,248,4.9,5.6,75,0.00,,,0.00,VWS V14.01,2013-02-27 15:05:00,
2013-02-27 10:10:00,39.9,32.3,29.79,WSW,248,4.0,6.0,74,0.00,,,0.00,VWS V14.01,2013-02-27 15:10:00,
2013-02-27 10:15:00,39.9,32.0,29.79,SW,225,4.7,7.4,73,0.00,,,0.00,VWS V14.01,2013-02-27 15:15:00,
2013-02-27 10:20:00,39.7,30.8,29.79,SW,225,3.8,11.9,70,0.00,,,0.00,VWS V14.01,2013-02-27 15:20:00,
2013-02-27 10:25:00,39.7,30.1,29.82,WSW,248,3.8,11.9,68,0.00,,,0.00,VWS V14.01,2013-02-27 15:25:00,
2013-02-27 10:30:00,39.6,29.5,29.82,WSW,248,5.8,11.9,67,0.00,,,0.00,VWS V14.01,2013-02-27 15:30:00,
2013-02-27 10:35:00,39.6,29.5,29.82,WSW,248,2.9,11.9,67,0.00,,,0.00,VWS V14.01,2013-02-27 15:35:00,
2013-02-27 10:40:00,39.7,30.1,29.82,WSW,248,4.9,11.9,68,0.00,,,0.00,VWS V14.01,2013-02-27 15:40:00,
2013-02-27 10:45:00,39.6,29.9,29.82,West,270,5.6,11.9,68,0.00,,,0.00,VWS V14.01,2013-02-27 15:45:00,
2013-02-27 10:50:00,39.7,30.1,29.82,SW,225,5.8,11.9,68,0.00,,,0.00,VWS V14.01,2013-02-27 15:50:00,
2013-02-27 10:55:00,39.9,30.6,29.79,SW,225,3.4,4.0,69,0.00,,,0.00,VWS V14.01,2013-02-27 15:55:00,
2013-02-27 11:00:00,39.9,30.6,29.79,WSW,248,6.0,7.4,69,0.00,,,0.00,VWS V14.01,2013-02-27 16:00:00,
2013-02-27 11:05:00,40.1,30.8,29.79,SW,225,3.4,7.4,69,0.00,,,0.00,VWS V14.01,2013-02-27 16:05:00,
2013-02-27 11:10:00,40.3,30.9,29.79,SW,225,4.3,7.6,69,0.00,,,0.00,VWS V14.01,2013-02-27 16:10:00,
2013-02-27 11:15:00,40.3,30.9,29.79,SW,225,3.8,7.6,69,0.00,,,0.00,VWS V14.01,2013-02-27 16:15:00,
2013-02-27 11:20:00,40.3,30.6,29.79,SW,225,8.1,8.7,68,0.00,,,0.00,VWS V14.01,2013-02-27 16:20:00,
2013-02-27 11:25:00,40.5,30.4,29.79,WSW,248,4.3,8.7,67,0.00,,,0.00,VWS V14.01,2013-02-27 16:25:00,
2013-02-27 11:30:00,40.5,30.4,29.79,West,270,3.8,8.7,67,0.00,,,0.00,VWS V14.01,2013-02-27 16:30:00,
2013-02-27 11:35:00,40.6,30.2,29.79,SW,225,5.8,9.8,66,0.00,,,0.00,VWS V14.01,2013-02-27 16:35:00,
2013-02-27 11:40:00,41.4,31.2,29.79,WSW,248,2.7,9.8,67,0.00,,,0.00,VWS V14.01,2013-02-27 16:40:00,
2013-02-27 11:45:00,42.1,31.2,29.79,WNW,292,6.0,9.8,65,0.00,,,0.00,VWS V14.01,2013-02-27 16:45:00,
2013-02-27 11:50:00,42.3,30.6,29.79,South,180,6.3,9.8,63,0.00,,,0.00,VWS V14.01,2013-02-27 16:50:00,
2013-02-27 11:55:00,41.9,29.5,29.79,SSW,202,4.0,4.3,61,0.00,,,0.00,VWS V14.01,2013-02-27 16:55:00,
2013-02-27 12:00:00,41.5,28.7,29.79,West,270,8.1,8.1,60,0.00,,,0.00,VWS V14.01,2013-02-27 17:00:00,
2013-02-27 12:05:00,41.4,28.1,29.79,WSW,248,5.4,8.1,59,0.00,,,0.00,VWS V14.01,2013-02-27 17:05:00,
2013-02-27 12:10:00,41.2,28.4,29.79,WSW,248,7.4,8.1,60,0.00,,,0.00,VWS V14.01,2013-02-27 17:10:00,
2013-02-27 12:15:00,41.0,27.8,29.79,WSW,248,5.6,10.5,59,0.00,,,0.00,VWS V14.01,2013-02-27 17:15:00,
2013-02-27 12:20:00,40.6,27.9,29.79,SSW,202,3.4,10.5,60,0.00,,,0.00,VWS V14.01,2013-02-27 17:20:00,
2013-02-27 12:25:00,40.6,29.0,29.82,SSW,202,4.3,10.5,63,0.00,,,0.00,VWS V14.01,2013-02-27 17:25:00,
2013-02-27 12:30:00,40.5,28.9,29.82,West,270,2.9,10.5,63,0.00,,,0.00,VWS V14.01,2013-02-27 17:30:00,
2013-02-27 12:35:00,40.5,28.5,29.82,WSW,248,4.3,10.5,62,0.00,,OVC024,0.00,VWS V14.01,2013-02-27 17:35:00,
2013-02-27 12:40:00,40.3,28.3,29.79,SW,225,4.0,10.5,62,0.00,,OVC024,0.00,VWS V14.01,2013-02-27 17:40:00,
2013-02-27 12:45:00,40.3,28.3,29.79,WSW,248,4.7,10.5,62,0.00,,OVC024,0.00,VWS V14.01,2013-02-27 17:45:00,
2013-02-27 12:50:00,40.3,28.3,29.79,WSW,248,4.3,10.5,62,0.00,,OVC024,0.00,VWS V14.01,2013-02-27 17:50:00,
2013-02-27 12:55:00,40.5,28.1,29.82,SW,225,6.3,8.1,61,0.00,,OVC024,0.00,VWS V14.01,2013-02-27 17:55:00,
2013-02-27 13:00:00,40.5,28.1,29.82,SW,225,4.9,8.1,61,0.00,,OVC024,0.00,VWS V14.01,2013-02-27 18:00:00,
2013-02-27 13:05:00,40.5,27.7,29.82,SW,225,3.1,8.1,60,0.00,,OVC024,0.00,VWS V14.01,2013-02-27 18:05:00,
2013-02-27 13:10:00,40.3,27.5,29.79,West,270,6.0,8.1,60,0.00,,OVC024,0.00,VWS V14.01,2013-02-27 18:10:00,
2013-02-27 13:15:00,40.1,27.4,29.79,SSW,202,8.1,8.1,60,0.00,,OVC024,0.00,VWS V14.01,2013-02-27 18:15:00,
2013-02-27 13:20:00,40.3,27.9,29.79,SW,225,5.6,9.6,61,0.00,,OVC025,0.00,VWS V14.01,2013-02-27 18:20:00,
2013-02-27 13:25:00,40.5,28.5,29.79,SW,225,4.5,9.6,62,0.00,,OVC025,0.00,VWS V14.01,2013-02-27 18:25:00,
2013-02-27 13:30:00,40.6,28.3,29.79,SW,225,4.9,9.6,61,0.00,,OVC025,0.00,VWS V14.01,2013-02-27 18:30:00,
2013-02-27 13:35:00,40.6,27.5,29.79,SW,225,2.5,9.6,59,0.00,,OVC025,0.00,VWS V14.01,2013-02-27 18:35:00,
2013-02-27 13:40:00,40.8,27.2,29.79,SW,225,4.0,9.6,58,0.00,,OVC025,0.00,VWS V14.01,2013-02-27 18:40:00,
2013-02-27 13:45:00,41.0,27.0,29.79,SW,225,6.5,9.6,57,0.00,,OVC025,0.00,VWS V14.01,2013-02-27 18:45:00,
2013-02-27 13:50:00,41.0,26.5,29.79,WSW,248,4.7,9.6,56,0.00,,OVC025,0.00,VWS V14.01,2013-02-27 18:50:00,
2013-02-27 13:55:00,41.0,26.5,29.79,West,270,3.8,6.0,56,0.00,,OVC025,0.00,VWS V14.01,2013-02-27 18:55:00,
2013-02-27 14:00:00,41.2,26.7,29.79,SSW,202,4.9,9.6,56,0.00,,OVC025,0.00,VWS V14.01,2013-02-27 19:00:00,
2013-02-27 14:05:00,41.9,27.4,29.79,NW,315,4.7,9.6,56,0.00,,OVC025,0.00,VWS V14.01,2013-02-27 19:05:00,
2013-02-27 14:10:00,42.6,27.1,29.79,SSW,202,8.7,9.6,54,0.00,,OVC025,0.00,VWS V14.01,2013-02-27 19:10:00,
2013-02-27 14:15:00,43.0,26.1,29.79,West,270,5.6,9.8,51,0.00,,OVC025,0.00,VWS V14.01,2013-02-27 19:15:00,
2013-02-27 14:20:00,42.8,25.5,29.79,SW,225,4.0,9.8,50,0.00,,OVC040,0.00,VWS V14.01,2013-02-27 19:20:00,
2013-02-27 14:25:00,42.8,25.0,29.79,WNW,292,4.7,9.8,49,0.00,,OVC040,0.00,VWS V14.01,2013-02-27 19:25:00,
2013-02-27 14:30:00,42.8,24.5,29.79,WSW,248,4.9,9.8,48,0.00,,OVC040,0.00,VWS V14.01,2013-02-27 19:30:00,
2013-02-27 14:34:00,43.0,24.6,29.79,SW,225,6.0,9.8,48,0.00,,OVC040,0.00,VWS V14.01,2013-02-27 19:34:00,
2013-02-27 14:39:00,43.2,24.8,29.79,SW,225,4.7,9.8,48,0.00,,OVC040,0.00,VWS V14.01,2013-02-27 19:39:00,
2013-02-27 14:44:00,43.2,24.8,29.79,WSW,248,5.8,9.8,48,0.00,,OVC040,0.00,VWS V14.01,2013-02-27 19:44:00,
2013-02-27 14:49:00,42.8,24.5,29.79,WSW,248,4.9,9.8,48,0.00,,OVC040,0.00,VWS V14.01,2013-02-27 19:49:00,
2013-02-27 14:54:00,42.4,23.6,29.79,WSW,248,3.6,6.3,47,0.00,,OVC040,0.00,VWS V14.01,2013-02-27 19:54:00,
2013-02-27 14:59:00,42.1,23.3,29.79,SSW,202,5.4,8.5,47,0.00,,OVC040,0.00,VWS V14.01,2013-02-27 19:59:00,
2013-02-27 15:04:00,41.9,23.7,29.79,WSW,248,4.3,8.5,48,0.00,,OVC040,0.00,VWS V14.01,2013-02-27 20:04:00,
2013-02-27 15:09:00,41.5,22.3,29.79,WSW,248,4.9,10.1,46,0.00,,OVC040,0.00,VWS V14.01,2013-02-27 20:09:00,
2013-02-27 15:14:00,41.0,21.8,29.79,WSW,248,10.5,10.7,46,0.00,,OVC040,0.00,VWS V14.01,2013-02-27 20:14:00,
2013-02-27 15:19:00,40.8,22.7,29.79,SSW,202,6.3,10.7,48,0.00,,OVC042,0.00,VWS V14.01,2013-02-27 20:19:00,
2013-02-27 15:24:00,40.8,22.7,29.79,West,270,6.0,10.7,48,0.00,,OVC042,0.00,VWS V14.01,2013-02-27 20:24:00,
2013-02-27 15:29:00,41.0,22.8,29.79,WSW,248,7.4,10.7,48,0.00,,OVC042,0.00,VWS V14.01,2013-02-27 20:29:00,
2013-02-27 15:34:00,41.0,22.3,29.79,SW,225,5.4,10.7,47,0.00,,OVC042,0.00,VWS V14.01,2013-02-27 20:34:00,
2013-02-27 15:39:00,41.0,21.8,29.79,West,270,3.8,10.7,46,0.00,,OVC042,0.00,VWS V14.01,2013-02-27 20:39:00,
2013-02-27 15:44:00,41.0,21.8,29.79,WSW,248,5.6,10.7,46,0.00,,OVC042,0.00,VWS V14.01,2013-02-27 20:44:00,
2013-02-27 15:49:00,41.2,22.0,29.79,SSW,202,4.3,10.7,46,0.00,,OVC042,0.00,VWS V14.01,2013-02-27 20:49:00,
2013-02-27 15:54:00,41.0,22.3,29.79,NW,315,3.4,3.4,47,0.00,,OVC042,0.00,VWS V14.01,2013-02-27 20:54:00,
2013-02-27 15:59:00,41.0,22.3,29.79,WSW,248,4.7,5.8,47,0.00,,OVC042,0.00,VWS V14.01,2013-02-27 20:59:00,
2013-02-27 16:04:00,40.8,22.7,29.79,WSW,248,5.8,6.0,48,0.00,,,0.00,VWS V14.01,2013-02-27 21:04:00,
2013-02-27 16:09:00,40.6,22.5,29.82,WSW,248,4.0,6.0,48,0.00,,,0.00,VWS V14.01,2013-02-27 21:09:00,
2013-02-27 16:14:00,40.6,22.5,29.82,SSW,202,3.8,6.0,48,0.00,,,0.00,VWS V14.01,2013-02-27 21:14:00,
2013-02-27 16:19:00,40.5,22.8,29.82,WSW,248,5.6,6.0,49,0.00,,,0.00,VWS V14.01,2013-02-27 21:19:00,
2013-02-27 16:24:00,40.3,23.1,29.82,SW,225,10.3,10.3,50,0.00,,,0.00,VWS V14.01,2013-02-27 21:24:00,
2013-02-27 16:29:00,40.3,23.6,29.82,SW,225,7.6,10.3,51,0.00,,,0.00,VWS V14.01,2013-02-27 21:29:00,
2013-02-27 16:34:00,40.5,24.2,29.82,SW,225,4.3,10.3,52,0.00,,OVC045,0.00,VWS V14.01,2013-02-27 21:34:00,
2013-02-27 16:39:00,40.5,24.2,29.82,WSW,248,3.8,10.3,52,0.00,,OVC045,0.00,VWS V14.01,2013-02-27 21:39:00,
2013-02-27 16:44:00,40.5,24.2,29.82,WSW,248,3.6,10.3,52,0.00,,OVC045,0.00,VWS V14.01,2013-02-27 21:44:00,
2013-02-27 16:49:00,40.6,23.9,29.82,SSW,202,5.4,10.3,51,0.00,,OVC045,0.00,VWS V14.01,2013-02-27 21:49:00,
2013-02-27 16:54:00,40.6,23.9,29.82,WSW,248,6.5,7.6,51,0.00,,OVC045,0.00,VWS V14.01,2013-02-27 21:54:00,
2013-02-27 16:59:00,40.6,23.5,29.82,WNW,292,4.9,9.8,50,0.00,,OVC045,0.00,VWS V14.01,2013-02-27 21:59:00,
2013-02-27 17:04:00,40.8,23.6,29.82,WSW,248,5.6,9.8,50,0.00,,OVC045,0.00,VWS V14.01,2013-02-27 22:04:00,
2013-02-27 17:09:00,41.0,23.3,29.82,SW,225,8.5,9.8,49,0.00,,OVC045,0.00,VWS V14.01,2013-02-27 22:09:00,
2013-02-27 17:14:00,41.0,23.3,29.82,WSW,248,7.4,9.8,49,0.00,,OVC045,0.00,VWS V14.01,2013-02-27 22:14:00,
2013-02-27 17:19:00,41.0,23.3,29.82,WSW,248,3.6,9.8,49,0.00,,OVC045,0.00,VWS V14.01,2013-02-27 22:19:00,
2013-02-27 17:24:00,40.6,23.5,29.82,WSW,248,4.9,9.8,50,0.00,,OVC045,0.00,VWS V14.01,2013-02-27 22:24:00,
2013-02-27 17:29:00,40.6,23.5,29.82,SW,225,4.3,9.8,50,0.00,,OVC045,0.00,VWS V14.01,2013-02-27 22:29:00,
2013-02-27 17:34:00,40.5,23.8,29.82,WSW,248,5.4,10.1,51,0.00,,OVC045,0.00,VWS V14.01,2013-02-27 22:34:00,
2013-02-27 17:39:00,40.5,23.8,29.82,SW,225,6.5,10.1,51,0.00,,OVC045,0.00,VWS V14.01,2013-02-27 22:39:00,
2013-02-27 17:44:00,40.5,23.8,29.82,SSW,202,2.5,10.1,51,0.00,,OVC045,0.00,VWS V14.01,2013-02-27 22:44:00,
2013-02-27 17:49:00,40.5,24.2,29.82,SW,225,2.7,10.1,52,0.00,,OVC045,0.00,VWS V14.01,2013-02-27 22:49:00,
2013-02-27 17:54:00,40.3,24.1,29.82,WSW,248,3.6,4.3,52,0.00,,OVC045,0.00,VWS V14.01,2013-02-27 22:54:00,
2013-02-27 17:59:00,39.9,23.7,29.82,SSE,158,2.7,7.4,52,0.00,,OVC045,0.00,VWS V14.01,2013-02-27 22:59:00,
2013-02-27 18:04:00,39.9,23.7,29.82,SSW,202,3.4,7.4,52,0.00,,,0.00,VWS V14.01,2013-02-27 23:04:00,
2013-02-27 18:09:00,39.7,24.0,29.82,WSW,248,3.1,7.4,53,0.00,,,0.00,VWS V14.01,2013-02-27 23:09:00,
2013-02-27 19:18:00,37.4,28.9,29.85,WSW,248,3.8,6.0,71,0.00,,,0.00,VWS V14.01,2013-02-28 00:18:00,
2013-02-27 19:23:00,37.4,28.9,29.85,WSW,248,4.0,7.4,71,0.00,,,0.00,VWS V14.01,2013-02-28 00:23:00,
2013-02-27 19:28:00,37.4,29.2,29.85,WSW,248,5.6,7.4,72,0.00,,,0.00,VWS V14.01,2013-02-28 00:28:00,
2013-02-27 19:33:00,37.4,29.2,29.85,West,270,3.1,7.4,72,0.00,,,0.00,VWS V14.01,2013-02-28 00:33:00,
2013-02-27 19:38:00,37.6,29.7,29.85,SW,225,2.5,7.4,73,0.00,,,0.00,VWS V14.01,2013-02-28 00:38:00,
2013-02-27 19:43:00,37.6,29.7,29.85,WSW,248,3.4,7.4,73,0.00,,,0.00,VWS V14.01,2013-02-28 00:43:00,
2013-02-27 19:48:00,37.4,29.5,29.85,SSW,202,3.6,7.4,73,0.00,,,0.00,VWS V14.01,2013-02-28 00:48:00,
2013-02-27 19:53:00,37.4,29.9,29.85,WSW,248,2.5,7.4,74,0.00,,,0.00,VWS V14.01,2013-02-28 00:53:00,
2013-02-27 19:58:00,37.0,29.5,29.85,SSW,202,3.1,6.5,74,0.00,,,0.00,VWS V14.01,2013-02-28 00:58:00,
2013-02-27 20:03:00,37.0,29.9,29.85,WSW,248,3.8,6.5,75,0.00,,,0.00,VWS V14.01,2013-02-28 01:03:00,
2013-02-27 20:08:00,37.0,30.2,29.85,WNW,292,2.5,6.5,76,0.00,,,0.00,VWS V14.01,2013-02-28 01:08:00,
2013-02-27 20:13:00,36.9,30.0,29.85,SSW,202,3.8,6.5,76,0.00,,,0.00,VWS V14.01,2013-02-28 01:13:00,
2013-02-27 20:18:00,36.7,30.2,29.85,WSW,248,1.6,6.5,77,0.00,,,0.00,VWS V14.01,2013-02-28 01:18:00,
2013-02-27 20:23:00,36.3,29.5,29.85,SW,225,2.2,6.5,76,0.04,,,0.04,VWS V14.01,2013-02-28 01:23:00,
2013-02-27 20:28:00,36.0,29.1,29.85,WSW,248,1.6,6.5,76,0.04,,,0.04,VWS V14.01,2013-02-28 01:28:00,
2013-02-27 20:33:00,35.8,29.3,29.85,West,270,1.3,6.5,77,0.04,,,0.04,VWS V14.01,2013-02-28 01:33:00,
2013-02-27 20:38:00,35.6,29.4,29.82,SSW,202,2.5,6.5,78,0.04,,,0.04,VWS V14.01,2013-02-28 01:38:00,
2013-02-27 20:43:00,35.6,29.7,29.82,WNW,292,3.6,7.2,79,0.04,,,0.04,VWS V14.01,2013-02-28 01:43:00,
2013-02-27 20:48:00,35.6,30.0,29.82,WSW,248,3.8,7.2,80,0.04,,,0.04,VWS V14.01,2013-02-28 01:48:00,
2013-02-27 20:53:00,35.6,30.0,29.85,SW,225,0.0,7.2,80,0.04,,,0.04,VWS V14.01,2013-02-28 01:53:00,
2013-02-27 20:58:00,35.6,30.4,29.85,WSW,248,0.0,4.0,81,0.04,,,0.04,VWS V14.01,2013-02-28 01:58:00,
2013-02-27 21:03:00,35.6,30.4,29.85,SW,225,0.0,4.0,81,0.04,,,0.04,VWS V14.01,2013-02-28 02:03:00,
2013-02-27 21:08:00,35.6,30.4,29.82,West,270,2.7,4.0,81,0.04,,,0.04,VWS V14.01,2013-02-28 02:08:00,
2013-02-27 21:13:00,35.6,30.4,29.82,WSW,248,1.3,4.0,81,0.04,,,0.04,VWS V14.01,2013-02-28 02:13:00,
2013-02-27 21:18:00,35.8,30.5,29.82,West,270,2.9,4.9,81,0.04,,,0.04,VWS V14.01,2013-02-28 02:18:00,
2013-02-27 21:23:00,35.8,30.5,29.85,WSW,248,3.6,4.9,81,0.04,,,0.04,VWS V14.01,2013-02-28 02:23:00,
2013-02-27 21:28:00,35.8,30.8,29.85,WSW,248,3.6,4.9,82,0.04,,,0.04,VWS V14.01,2013-02-28 02:28:00,
2013-02-27 21:33:00,35.8,30.8,29.85,WSW,248,2.9,4.9,82,0.04,,,0.04,VWS V14.01,2013-02-28 02:33:00,
2013-02-27 21:38:00,35.8,30.8,29.85,SSW,202,3.1,5.8,82,0.04,,,0.04,VWS V14.01,2013-02-28 02:38:00,
2013-02-27 21:43:00,36.0,30.7,29.85,West,270,2.2,5.8,81,0.04,,,0.04,VWS V14.01,2013-02-28 02:43:00,
2013-02-27 21:48:00,36.0,30.7,29.85,SW,225,1.6,5.8,81,0.04,,,0.04,VWS V14.01,2013-02-28 02:48:00,
2013-02-27 21:53:00,36.0,30.4,29.85,SW,225,3.6,5.8,80,0.04,,,0.04,VWS V14.01,2013-02-28 02:53:00,
2013-02-27 21:58:00,36.0,30.4,29.85,SW,225,2.7,3.1,80,0.00,,,0.04,VWS V14.01,2013-02-28 02:58:00,
2013-02-27 22:03:00,36.0,30.4,29.85,West,270,2.0,4.7,80,0.00,,,0.04,VWS V14.01,2013-02-28 03:03:00,
2013-02-27 22:08:00,36.0,30.1,29.82,SW,225,2.0,5.8,79,0.00,,,0.04,VWS V14.01,2013-02-28 03:08:00,
2013-02-27 22:13:00,35.8,29.9,29.82,SSW,202,3.6,5.8,79,0.00,,,0.04,VWS V14.01,2013-02-28 03:13:00,
2013-02-27 22:18:00,35.8,29.6,29.82,SW,225,4.0,5.8,78,0.00,,,0.04,VWS V14.01,2013-02-28 03:18:00,
2013-02-27 22:23:00,35.8,29.6,29.85,West,270,2.5,5.8,78,0.00,,,0.04,VWS V14.01,2013-02-28 03:23:00,
2013-02-27 22:28:00,35.8,29.6,29.85,WSW,248,4.5,6.3,78,0.00,,,0.04,VWS V14.01,2013-02-28 03:28:00,
2013-02-27 22:33:00,35.8,29.3,29.85,West,270,5.4,6.9,77,0.00,,,0.04,VWS V14.01,2013-02-28 03:33:00,
2013-02-27 22:38:00,35.8,29.3,29.85,WNW,292,3.6,6.9,77,0.00,,,0.04,VWS V14.01,2013-02-28 03:38:00,
2013-02-27 22:43:00,35.8,29.0,29.85,West,270,4.0,6.9,76,0.00,,,0.04,VWS V14.01,2013-02-28 03:43:00,
2013-02-27 22:48:00,36.0,29.1,29.85,SW,225,3.8,6.9,76,0.00,,,0.04,VWS V14.01,2013-02-28 03:48:00,
2013-02-27 22:53:00,36.0,28.8,29.85,SW,225,2.2,6.9,75,0.00,,,0.04,VWS V14.01,2013-02-28 03:53:00,
2013-02-27 22:58:00,36.0,28.8,29.85,West,270,2.2,5.4,75,0.00,,,0.04,VWS V14.01,2013-02-28 03:58:00,
2013-02-27 23:03:00,36.0,28.8,29.85,WSW,248,3.1,5.6,75,0.00,,,0.04,VWS V14.01,2013-02-28 04:03:00,
2013-02-27 23:08:00,36.1,29.0,29.82,WSW,248,2.5,5.6,75,0.00,,,0.04,VWS V14.01,2013-02-28 04:08:00,
2013-02-27 23:13:00,36.1,29.0,29.82,WSW,248,2.2,5.6,75,0.00,,,0.04,VWS V14.01,2013-02-28 04:13:00,
2013-02-27 23:18:00,36.1,29.3,29.82,SW,225,2.5,5.6,76,0.00,,OVC021,0.04,VWS V14.01,2013-02-28 04:18:00,
2013-02-27 23:23:00,36.1,29.3,29.85,SSW,202,3.4,5.6,76,0.00,,OVC021,0.04,VWS V14.01,2013-02-28 04:23:00,
2013-02-27 23:28:00,36.1,29.3,29.85,SSW,202,2.9,5.6,76,0.00,,OVC021,0.04,VWS V14.01,2013-02-28 04:28:00,
2013-02-27 23:33:00,36.0,29.5,29.85,WSW,248,2.7,6.3,77,0.00,,OVC021,0.04,VWS V14.01,2013-02-28 04:33:00,
2013-02-27 23:38:00,36.1,29.3,29.82,WSW,248,2.5,6.3,76,0.00,,OVC021,0.04,VWS V14.01,2013-02-28 04:38:00,
2013-02-27 23:43:00,36.1,29.6,29.82,WNW,292,2.0,6.3,77,0.00,,OVC021,0.04,VWS V14.01,2013-02-28 04:43:00,
2013-02-27 23:48:00,36.0,29.1,29.82,WSW,248,3.8,6.3,76,0.00,,OVC021,0.04,VWS V14.01,2013-02-28 04:48:00,
2013-02-27 23:53:00,36.0,29.1,29.85,West,270,3.1,6.3,76,0.00,,OVC021,0.04,VWS V14.01,2013-02-28 04:53:00,
2013-02-27 23:58:00,36.0,29.1,29.85,SSW,202,4.9,5.6,76,0.00,,OVC021,0.00,VWS V14.01,2013-02-28 04:58:00,